This demonstration page uses our WeatherBlox Daily Observations layout. Learn more.

39.29038, -76.61219

Hourly Observations for June 20, 2019

Temp ( °F °C ) Dew Point ( °F °C ) Humidity (%) Winds ( mph kmh ) Pressure ( in mb ) Visibility ( mi km ) Precip ( " mm )
12:54 am 00:54 undefined 76 24.4 73 22.8 91 91 undefined N/A 29.65 1004 N/A 0 0
1:54 am 01:54 undefined 75 23.9 72 22.2 90 90 undefined N/A 29.65 1004 N/A 0 0
2:54 am 02:54 undefined 75 23.9 72 22.2 90 90 undefined N/A 29.62 1003 N/A 0 0
3:54 am 03:54 undefined 75 23.9 72 22.2 90 90 undefined N/A 29.62 1003 N/A 0 0
4:54 am 04:54 undefined 75 23.9 72 22.2 90 90 undefined N/A 29.62 1003 N/A 0 0
5:54 am 05:54 undefined 75 23.9 72 22.2 90 90 undefined N/A 29.62 1003 N/A 0 0
6:54 am 06:54 undefined 75 23.9 72 22.2 90 90 undefined N/A 29.62 1003 N/A 0 0
7:54 am 07:54 undefined 76 24.4 73 22.8 91 91 undefined N/A 29.62 1003 N/A 0 0
8:54 am 08:54 undefined 78 25.6 73 22.8 85 85 undefined N/A 29.62 1003 N/A 0 0
9:54 am 09:54 undefined 82 27.8 74 23.3 77 77 undefined N/A 29.62 1003 N/A 0 0
10:54 am 10:54 undefined 84 28.9 73 22.8 70 70 undefined N/A 29.62 1003 N/A 0 0
11:54 am 11:54 undefined 86 30 72 22.2 63 63 undefined N/A 29.56 1001 N/A 0 0
12:54 pm 12:54 undefined 86 30 71 21.7 61 61 undefined N/A 29.53 1000 N/A 0 0
1:54 pm 13:54 undefined 87 30.6 71 21.7 59 59 undefined N/A 29.53 1000 N/A 0 0
2:54 pm 14:54 undefined 92 33.3 69 20.6 47 47 undefined N/A 29.53 1000 N/A 0 0
3:54 pm 15:54 undefined 89 31.7 69 20.6 52 52 undefined N/A 29.47 998 N/A 0 0
4:54 pm 16:54 undefined 90 32.2 64 17.8 42 42 undefined N/A 29.5 999 N/A 0 0
5:54 pm 17:54 undefined 88 31.1 62 16.7 42 42 undefined N/A 29.44 997 N/A 0 0
6:54 pm 18:54 undefined 86 30 62 16.7 45 45 undefined N/A 29.47 998 N/A 0 0
7:54 pm 19:54 undefined 84 28.9 63 17.2 49 49 undefined N/A 29.47 998 N/A 0 0
8:54 pm 20:54 undefined 83 28.3 64 17.8 53 53 undefined N/A 29.5 999 N/A 0 0
9:54 pm 21:54 undefined 82 27.8 64 17.8 55 55 undefined N/A 29.53 1000 N/A 0 0
10:54 pm 22:54 undefined 77 25 69 20.6 77 77 undefined N/A 29.5 999 N/A 0.03 0.762
11:54 pm 23:54 undefined 74 23.3 69 20.6 85 85 undefined N/A 29.53 1000 N/A 0.01 0.254

Powered by AerisWeather